Location: Unspecified
(40.7945°N, 111.1337°W)
Time: 20:53:05
(UTC-06:00)

Vanguard 1 - Pass Details

Date: 17 June 2019
Orbit: 653 x 3830 km, 34.3° (Epoch: 17 July)

Event Time Altitude Azimuth Distance (km) Brightness Sun altitude
Exits shadow 04:42:15 12° 220° (SW) 5,564 13.2 -11.2°
Maximum altitude 04:55:23 40° 161° (SSE) 2,735 12.1 -9.4°
Drops below altitude 10° 05:03:43 10° 96° (E) 3,457 13.5 -8.3°
Sets 05:06:14 0° 88° (E) 4,127 14.2 -7.9°
